When you browse on this site, cookies collect data to enhance your experience and personalize the content and advertising you see.
Visit our Privacy Policy to learn more. By continuing to use the site, you agree to this use of cookies and data.
  • In Hungary
  • List of Countries
  • For 7 days
  • Water Temperature
  • Weather Map
  • News
  • Weather Widgets
  • user-avatar
    Login

    Hourly Weather Zhigalovo

    Today, 20 August, Tuesday

    Time Temperature Precipitation Wind Pressure Humidity
    00:00 +18°C° 0 mm 3 mps 748 mmHg 81%
    01:00 +18°C° 0 mm 3 mps 748 mmHg 81%
    02:00 +17°C° 0 mm 3 mps 748 mmHg 81%
    03:00 +17°C° 0 mm 3 mps 749 mmHg 82%
    04:00 +17°C° 0 mm 3 mps 749 mmHg 82%
    05:00 +16°C° 0 mm 3 mps 749 mmHg 83%
    06:00 +18°C° 0 mm 3 mps 749 mmHg 82%
    07:00 +19°C° 0 mm 3 mps 749 mmHg 81%
    08:00 +21°C° 0 mm 2 mps 749 mmHg 80%
    09:00 +22°C° 0 mm 3 mps 749 mmHg 77%
    10:00 +25°C° 0 mm 3 mps 750 mmHg 74%
    11:00 +26°C° 0 mm 4 mps 750 mmHg 70%
    12:00 +27°C° 0.3 mm 3 mps 750 mmHg 68%
    13:00 +28°C° 0.3 mm 3 mps 750 mmHg 66%
    14:00 +28°C° 0.3 mm 3 mps 750 mmHg 63%
    15:00 +28°C° 0.2 mm 3 mps 750 mmHg 66%
    16:00 +28°C° 0.2 mm 2 mps 750 mmHg 70%
    17:00 +28°C° 0.2 mm 1 mps 750 mmHg 73%
    18:00 +26°C° 0 mm 2 mps 750 mmHg 76%
    19:00 +24°C° 0 mm 2 mps 750 mmHg 79%
    20:00 +23°C° 0 mm 2 mps 750 mmHg 82%
    21:00 +21°C° 0.1 mm 2 mps 750 mmHg 83%
    22:00 +20°C° 0.1 mm 2 mps 750 mmHg 83%
    23:00 +20°C° 0.1 mm 2 mps 750 mmHg 84%

    Tomorrow, 21 August, Wednesday

    Time Temperature Precipitation Wind Pressure Humidity
    00:00 +19°C° 0 mm 2 mps 750 mmHg 84%
    01:00 +19°C° 0 mm 2 mps 750 mmHg 84%
    02:00 +19°C° 0 mm 2 mps 751 mmHg 83%
    03:00 +18°C° 0 mm 2 mps 750 mmHg 83%
    04:00 +18°C° 0 mm 2 mps 750 mmHg 82%
    05:00 +18°C° 0 mm 2 mps 750 mmHg 81%
    06:00 +19°C° 0 mm 2 mps 750 mmHg 78%
    07:00 +20°C° 0 mm 3 mps 750 mmHg 76%
    08:00 +21°C° 0 mm 3 mps 750 mmHg 74%
    09:00 +24°C° 0 mm 3 mps 750 mmHg 70%
    10:00 +25°C° 0 mm 4 mps 750 mmHg 67%
    11:00 +27°C° 0 mm 4 mps 750 mmHg 63%
    12:00 +27°C° 0 mm 4 mps 750 mmHg 62%
    13:00 +28°C° 0 mm 4 mps 750 mmHg 60%
    14:00 +28°C° 0 mm 4 mps 750 mmHg 58%
    15:00 +28°C° 0 mm 4 mps 749 mmHg 62%
    16:00 +28°C° 0 mm 3 mps 749 mmHg 66%
    17:00 +27°C° 0 mm 3 mps 749 mmHg 69%
    18:00 +25°C° 0 mm 3 mps 749 mmHg 73%
    19:00 +24°C° 0 mm 3 mps 748 mmHg 76%
    20:00 +21°C° 0 mm 3 mps 748 mmHg 79%
    21:00 +21°C° 0 mm 3 mps 748 mmHg 80%
    22:00 +20°C° 0 mm 3 mps 748 mmHg 80%
    23:00 +20°C° 0 mm 3 mps 748 mmHg 81%

    Day after tomorrow, 22 August, Thursday

    Time Temperature Precipitation Wind Pressure Humidity
    00:00 +19°C° 0 mm 3 mps 749 mmHg 82%
    01:00 +19°C° 0 mm 3 mps 749 mmHg 82%
    02:00 +18°C° 0 mm 2 mps 749 mmHg 83%
    03:00 +18°C° 0 mm 2 mps 749 mmHg 86%
    04:00 +17°C° 0 mm 3 mps 749 mmHg 90%
    05:00 +17°C° 0 mm 3 mps 749 mmHg 94%
    06:00 +18°C° 0 mm 3 mps 749 mmHg 92%
    07:00 +18°C° 0 mm 4 mps 750 mmHg 90%
    08:00 +19°C° 0 mm 5 mps 750 mmHg 88%
    09:00 +17°C° 0.3 mm 5 mps 750 mmHg 88%
    10:00 +17°C° 0.3 mm 5 mps 750 mmHg 87%
    11:00 +17°C° 0.3 mm 5 mps 751 mmHg 87%
    12:00 +19°C° 0.2 mm 5 mps 751 mmHg 86%
    13:00 +19°C° 0.2 mm 5 mps 751 mmHg 85%
    14:00 +19°C° 0.2 mm 5 mps 751 mmHg 84%
    15:00 +19°C° 0 mm 4 mps 751 mmHg 82%
    16:00 +20°C° 0 mm 4 mps 751 mmHg 80%
    17:00 +20°C° 0 mm 4 mps 751 mmHg 79%
    18:00 +19°C° 0 mm 3 mps 751 mmHg 83%
    19:00 +18°C° 0 mm 3 mps 751 mmHg 87%
    20:00 +16°C° 0 mm 3 mps 751 mmHg 91%
    21:00 +16°C° 0 mm 3 mps 751 mmHg 91%
    22:00 +14°C° 0 mm 3 mps 751 mmHg 92%
    23:00 +14°C° 0 mm 3 mps 752 mmHg 92%

    23 August, Friday

    Time Temperature Precipitation Wind Pressure Humidity
    00:00 +13°C° 0 mm 3 mps 751 mmHg 92%
    01:00 +13°C° 0 mm 3 mps 751 mmHg 92%
    02:00 +13°C° 0 mm 3 mps 751 mmHg 92%
    03:00 +12°C° 0 mm 3 mps 751 mmHg 92%
    04:00 +12°C° 0 mm 3 mps 751 mmHg 92%
    05:00 +12°C° 0 mm 3 mps 751 mmHg 93%
    06:00 +13°C° 0 mm 3 mps 751 mmHg 89%
    07:00 +14°C° 0 mm 3 mps 751 mmHg 86%
    08:00 +17°C° 0 mm 3 mps 752 mmHg 82%
    09:00 +18°C° 0 mm 3 mps 752 mmHg 77%
    10:00 +20°C° 0 mm 3 mps 752 mmHg 72%
    11:00 +21°C° 0 mm 4 mps 752 mmHg 67%
    12:00 +21°C° 0 mm 4 mps 752 mmHg 65%
    13:00 +21°C° 0 mm 4 mps 752 mmHg 63%
    14:00 +22°C° 0 mm 4 mps 751 mmHg 61%
    15:00 +21°C° 0 mm 4 mps 751 mmHg 64%
    16:00 +21°C° 0 mm 3 mps 751 mmHg 66%
    17:00 +20°C° 0 mm 3 mps 751 mmHg 69%
    18:00 +19°C° 0 mm 3 mps 751 mmHg 74%
    19:00 +17°C° 0 mm 3 mps 751 mmHg 79%
    20:00 +14°C° 0 mm 3 mps 752 mmHg 84%
    21:00 +13°C° 0 mm 3 mps 752 mmHg 86%
    22:00 +13°C° 0 mm 3 mps 752 mmHg 89%
    23:00 +12°C° 0 mm 3 mps 752 mmHg 92%

    24 August, Saturday

    Time Temperature Precipitation Wind Pressure Humidity
    00:00 +12°C° 0 mm 3 mps 752 mmHg 93%
    01:00 +11°C° 0 mm 3 mps 752 mmHg 94%
    02:00 +11°C° 0 mm 3 mps 753 mmHg 95%
    03:00 +11°C° 0 mm 3 mps 753 mmHg 95%
    04:00 +10°C° 0 mm 3 mps 753 mmHg 95%
    05:00 +10°C° 0 mm 3 mps 753 mmHg 95%
    06:00 +12°C° 0 mm 3 mps 753 mmHg 90%
    07:00 +13°C° 0 mm 3 mps 753 mmHg 86%
    08:00 +16°C° 0 mm 3 mps 753 mmHg 81%
    09:00 +17°C° 0 mm 3 mps 754 mmHg 74%
    10:00 +18°C° 0 mm 3 mps 754 mmHg 68%
    11:00 +20°C° 0 mm 3 mps 754 mmHg 61%
    12:00 +20°C° 0 mm 3 mps 754 mmHg 61%
    13:00 +21°C° 0 mm 3 mps 754 mmHg 61%
    14:00 +21°C° 0 mm 3 mps 754 mmHg 61%
    15:00 +21°C° 0 mm 3 mps 753 mmHg 64%
    16:00 +20°C° 0 mm 3 mps 753 mmHg 68%
    17:00 +20°C° 0 mm 2 mps 753 mmHg 71%
    18:00 +18°C° 0 mm 2 mps 753 mmHg 77%
    19:00 +17°C° 0 mm 2 mps 753 mmHg 83%
    20:00 +15°C° 0 mm 1 mps 753 mmHg 88%
    21:00 +14°C° 0 mm 1 mps 754 mmHg 89%
    22:00 +14°C° 0 mm 1 mps 754 mmHg 90%
    23:00 +13°C° 0 mm 1 mps 754 mmHg 90%

    25 August, Sunday

    Time Temperature Precipitation Wind Pressure Humidity
    00:00 +12°C° 0 mm 0 mps 754 mmHg 90%
    01:00 +12°C° 0 mm 0 mps 754 mmHg 90%
    02:00 +11°C° 0 mm 0 mps 754 mmHg 90%
    03:00 +11°C° 0 mm 0 mps 754 mmHg 90%
    04:00 +11°C° 0 mm 0 mps 754 mmHg 90%
    05:00 +11°C° 0 mm 0 mps 754 mmHg 91%
    06:00 +13°C° 0 mm 0 mps 754 mmHg 86%
    07:00 +14°C° 0 mm 0 mps 754 mmHg 82%
    08:00 +16°C° 0 mm 0 mps 754 mmHg 78%
    09:00 +18°C° 0 mm 0 mps 754 mmHg 73%
    10:00 +19°C° 0 mm 0 mps 754 mmHg 67%
    11:00 +20°C° 0 mm 0 mps 754 mmHg 62%
    12:00 +21°C° 0 mm 0 mps 754 mmHg 60%
    13:00 +21°C° 0 mm 0 mps 754 mmHg 58%
    14:00 +21°C° 0 mm 0 mps 754 mmHg 56%
    15:00 +21°C° 0 mm 0 mps 753 mmHg 58%
    16:00 +21°C° 0 mm 0 mps 753 mmHg 60%
    17:00 +21°C° 0 mm 0 mps 753 mmHg 62%
    18:00 +21°C° 0 mm 1 mps 753 mmHg 67%
    19:00 +19°C° 0 mm 1 mps 753 mmHg 72%
    20:00 +16°C° 0 mm 1 mps 753 mmHg 77%
    21:00 +16°C° 0 mm 1 mps 753 mmHg 79%
    22:00 +15°C° 0 mm 1 mps 753 mmHg 81%
    23:00 +15°C° 0 mm 1 mps 753 mmHg 83%
    Show more